Weather History for Aberdeen, SD

Change the Weather History Date:

Thursday, May 23, 2013

  Actual Average Record
Temperature  
Mean Temperature 56 °F 59 °F  
Max Temperature 68 °F 71 °F 94 °F (1950)
Min Temperature 44 °F 47 °F 26 °F (1897)
Degree Days  
Heating Degree Days 9 7  
Month to date heating degree days 256 237  
Since 1 July heating degree days 8961 8408  
Cooling Degree Days 0 1  
Month to date cooling degree days 17 13  
Year to date cooling degree days 17 15  
Growing Degree Days 6 (Base 50)    
Moisture  
Dew Point 44 °F    
Average Humidity 66    
Maximum Humidity 92    
Minimum Humidity 40    
Precipitation  
Precipitation 0.00 in 0.09 in 1.04 in (1936)
Month to date precipitation 3.10 2.34  
Year to date precipitation 7.30 6.37  
Sea Level Pressure  
Sea Level Pressure 30.23 in    
Wind  
Wind Speed 9 mph (ESE)    
Max Wind Speed 17 mph    
Max Gust Speed 25 mph    
Visibility 10 miles    
Events      
T = Trace of Precipitation, MM = Missing Value Source: NWS Daily Summary

Daily Weather History Graph

Daily Weather History Graph

Search for Another Location

Airport:

Trip Planner

Search our weather history database for the weather conditions in past years. The results will help you decide how hot, cold, wet, or windy it might be!

Date:

Astronomy

May. 23, 2013 Rise Set
Actual Time 5:54 AM CDT 9:06 PM CDT
Civil Twilight 5:19 AM CDT 9:42 PM CDT
Nautical Twilight 4:32 AM CDT 10:28 PM CDT
Astronomical Twilight 3:36 AM CDT 11:26 PM CDT
Moon 7:37 PM CDT (5/23) 4:46 AM CDT (5/23)
Length of Visible Light 16h 23m
Length of Day
15h 11m
Waxing Gibbous, 97% of the Moon is Illuminated
May 23
Waxing Gibbous
May 24
Full
May 31
Last Quarter
Jun 8
New
Jun 16
First Quarter

Hourly Weather History & Observations

Time (CDT) Temp. Windchill Dew Point Humidity Pressure Visibility Wind Dir Wind Speed Gust Speed Precip Events Conditions
12:53 AM 48.0 °F - 44.1 °F 86% 30.13 in 10.0 mi West 4.6 mph - N/A   Clear
1:53 AM 44.1 °F 40.8 °F 42.1 °F 93% 30.15 in 10.0 mi West 5.8 mph - N/A   Clear
2:53 AM 46.0 °F 43.9 °F 43.0 °F 89% 30.15 in 10.0 mi NW 4.6 mph - N/A   Clear
3:53 AM 45.0 °F 42.6 °F 41.0 °F 86% 30.16 in 10.0 mi North 4.6 mph - N/A   Clear
4:53 AM 46.9 °F - 42.1 °F 83% 30.18 in 10.0 mi North 8.1 mph - N/A   Clear
5:53 AM 45.0 °F 42.6 °F 41.0 °F 86% 30.20 in 10.0 mi North 4.6 mph - N/A   Clear
6:53 AM 46.0 °F 43.1 °F 42.1 °F 86% 30.22 in 10.0 mi NNE 5.8 mph - N/A   Clear
7:53 AM 48.9 °F - 45.0 °F 86% 30.24 in 10.0 mi NE 8.1 mph - N/A   Clear
8:53 AM 51.1 °F - 46.0 °F 83% 30.25 in 10.0 mi ESE 5.8 mph - N/A   Clear
9:07 AM 51.8 °F - 46.4 °F 82% 30.25 in 10.0 mi ESE 5.8 mph - N/A   Partly Cloudy
9:53 AM 54.0 °F - 46.9 °F 77% 30.27 in 10.0 mi Variable 4.6 mph - N/A   Clear
10:53 AM 61.0 °F - 48.9 °F 64% 30.27 in 10.0 mi South 6.9 mph - N/A   Clear
11:53 AM 61.0 °F - 46.9 °F 60% 30.28 in 10.0 mi SE 8.1 mph - N/A   Mostly Cloudy
12:53 PM 64.9 °F - 48.9 °F 56% 30.27 in 10.0 mi SE 11.5 mph - N/A   Scattered Clouds
1:53 PM 66.0 °F - 46.0 °F 48% 30.27 in 10.0 mi ESE 8.1 mph 18.4 mph N/A   Mostly Cloudy
2:53 PM 66.9 °F - 45.0 °F 45% 30.25 in 10.0 mi East 11.5 mph 16.1 mph N/A   Partly Cloudy
3:53 PM 66.9 °F - 44.1 °F 44% 30.24 in 10.0 mi East 13.8 mph - N/A   Scattered Clouds
4:53 PM 66.9 °F - 41.0 °F 39% 30.23 in 10.0 mi East 12.7 mph - N/A   Clear
5:53 PM 66.9 °F - 44.1 °F 44% 30.23 in 10.0 mi SE 16.1 mph 20.7 mph N/A   Clear
6:53 PM 64.9 °F - 44.1 °F 47% 30.23 in 10.0 mi SE 10.4 mph - N/A   Clear
7:53 PM 62.1 °F - 42.1 °F 48% 30.23 in 10.0 mi SE 10.4 mph - N/A   Clear
8:53 PM 55.9 °F - 43.0 °F 62% 30.24 in 10.0 mi ESE 6.9 mph - N/A   Clear
9:53 PM 53.1 °F - 42.1 °F 66% 30.26 in 10.0 mi ESE 8.1 mph - N/A   Clear
10:53 PM 52.0 °F - 42.1 °F 69% 30.26 in 10.0 mi ESE 10.4 mph - N/A   Clear
11:53 PM 50.0 °F - 39.9 °F 68% 30.26 in 10.0 mi ESE 9.2 mph - N/A   Clear